Hourly Data Report for July 09, 2021

SWAN RIVER RCS
MANITOBA
Current Station Operator: ECCC - MSC

52°06'53.900" N
101°13'58.500" W
334.80 m
504K80K
71443
WEQ

Download Data

Hourly Data (July 2021)
Hourly Data Report for July 9, 2021
TIME
LST
Temp Definition
°C
Dew Point Definition
°C
Rel Hum Definition
%
Precip. Amount Definition
mm

Wind Dir Definition
10's deg

Wind Spd Definition
km/h
Visibility Definition
km
Stn Press Definition
kPa
Hmdx Definition


Wind Chill Definition


Weather Definition


00:00 13.8 12.1 89 0.0 29 6   97.39     LegendNANA
01:00 13.7 12.2 91 0.0 29 5   97.41     LegendNANA
02:00 11.9 10.3 90 0.0 28 3   97.41     LegendNANA
03:00 11.6 10.6 94 0.0 20 7   97.42     LegendNANA
04:00 11.2 10.3 95 0.0 20 10   97.42     LegendNANA
05:00 11.4 10.4 94 0.0 22 8   97.48     LegendNANA
06:00 13.7 11.6 87 0.0 22 4   97.49     LegendNANA
07:00 15.8 12.2 79 0.0 21 11   97.51     LegendNANA
08:00 19.4 13.8 70 0.0 21 11   97.54     LegendNANA
09:00 22.0 15.7 68 0.0 22 11   97.54 26   LegendNANA
10:00 24.8 15.8 57 0.0 23 9   97.54 29   LegendNANA
11:00 26.4 14.4 47 0.0 24 11   97.52 30   LegendNANA
12:00 28.0 12.2 37 0.0 21 14   97.52 30   LegendNANA
13:00 29.5 12.9 36 0.0 21 14   97.51 32   LegendNANA
14:00 30.3 10.7 30 0.0 22 14   97.51 32   LegendNANA
15:00 30.3 11.4 31 0.0 23 16   97.48 32   LegendNANA
16:00 31.0 11.4 30 0.0 23 18   97.45 33   LegendNANA
17:00 30.3 11.6 32 0.0 23 17   97.42 32   LegendNANA
18:00 29.6 12.5 35 0.0 26 16   97.44 32   LegendNANA
19:00 29.3 14.7 41 0.0 25 11   97.42 33   LegendNANA
20:00 27.0 15.6 50 0.0 26 13   97.44 31   LegendNANA
21:00 24.4 15.3 57 0.0 25 13   97.48 29   LegendNANA
22:00 20.7 15.3 71 0.0 21 9   97.55 25   LegendNANA
23:00 19.0 15.1 78 0.0 22 10   97.55     LegendNANA

Notes on Data Quality.

Legend

  • E = Estimated
  • M = Missing
  • NA = Not Available*
  • [empty] = Indicates an unobserved value
Date modified: